CAPE
1281 1583 1705 1876 2012 2416 2378 2396 2272 2311 2185 2316 2479 2615 2458 2744 2682 2968 3094 3034 3142 3368 3406 3490 3453 3307 3233 3221 2853 2754 2745 2758 2557 2590 2582 2543 2632 2758 2665 2688 2708 2432 2364 2479 2527 2713 2380 2454 2993 2577 3076 3104 2859 2866 3148 3027 3153 3062 3181 3299 3185 3037 3202 3504 3386 3252 3021 2741 2677 2825 2377 2876 3143 2996 2793 2791 3043 3025 2900 2615 2842 2785 2488 2657 2978
1416 1663 1890 1966 2012 2409 2554 2554 2613 2426 2423 2478 2648 2597 2773 2805 2859 2922 3036 3084 3158 3240 3434 3540 3420 3308 3216 3123 2744 2566 2607 2617 2617 2612 2633 2671 2619 2660 2757 2723 2587 2508 2564 2662 2235 2776 2795 2709 2490 2714 3135 3077 3021 2980 2974 2957 3088 3038 2982 3162 3043 2707 2866 3189 3133 3053 2842 2982 2716 2895 2966 2922 3021 3082 2934 2846 2767 2845 3078 2934 2781 2461 2576 2892 2844
1554 1745 1933 2222 2052 2630 2638 2553 2692 2739 2654 2576 2614 2646 2746 2812 2914 2960 3061 3081 3174 3259 3364 3473 3336 3288 3221 3178 3105 2651 2733 2586 2493 2499 2538 2562 2576 2618 2501 2365 2549 2553 2162 2618 2623 2272 2712 2879 3054 3042 2920 3006 2948 3027 2966 3087 3075 3026 2876 2915 2767 2829 2938 2816 3117 3078 2701 2751 2630 2806 2612 3108 3101 2979 2904 2930 3011 3182 3225 3008 2865 2809 2711 2881 2778
1608 1807 2000 2287 2563 2698 2835 2640 2762 2757 2625 2655 2627 2549 2831 2918 2996 3058 2930 2928 3014 3059 3243 3287 3370 3239 3201 3170 3096 3056 2825 2772 2773 2714 2680 2717 2674 2367 2294 2292 2171 2630 2296 2339 2461 2502 3146 3133 3143 2857 3137 2850 2918 3202 2858 3136 2936 2956 3084 3112 2958 2972 2909 2817 2846 2933 2702 2878 3013 2920 2843 2759 3047 2948 2861 2953 2936 2937 2863 2750 2840 2756 2853 2708 2820
1634 1857 2007 2334 2708 2410 2843 2730 2722 2833 2890 2775 2735 2699 2691 2897 3032 2984 2957 3001 3070 3219 3154 3214 3265 3234 3196 3116 3138 3198 3054 2933 2698 2714 2790 2654 2599 2708 2657 2635 2274 2569 2442 2349 2703 2786 2965 3017 2793 2790 3056 2741 2524 2869 3104 2944 2905 3110 2927 2782 2716 2921 2823 2715 2857 3067 3281 3260 3124 2725 2362 2384 2444 3020 2859 2824 2989 3094 2975 2833 2768 2669 2850 2773 2788
1719 1930 2191 2368 2454 2565 2707 2687 2797 2819 2712 2909 2710 2893 2876 2860 3012 3008 3058 3099 3157 3200 3135 3041 3096 3118 3065 3040 2978 2915 2814 2819 2735 2825 2869 2706 2698 2702 2744 2816 2148 2230 2385 2644 2796 3083 2781 2560 3168 3136 2914 2963 2938 3100 2624 2804 3127 2976 2901 2876 2800 2678 2564 2319 2623 3026 3244 3132 2942 2281 2299 2174 2203 2434 2519 2615 2779 2646 2725 2646 2673 2816 2792 2732 2804
1891 2053 2429 2488 2456 2288 2666 2683 2473 2329 2599 2632 2585 2616 2720 2880 3102 3125 2996 3018 3094 2970 2964 2766 2914 2862 2792 2879 3003 2954 2904 2807 2734 2886 2784 2526 2554 2828 2904 2837 2568 2619 2505 2273 2371 2756 2790 2963 2805 2684 2470 2692 2643 2837 2995 2844 3009 3082 3149 2940 2654 2741 2669 2620 2969 3098 2882 2271 2282 2285 2307 2343 2439 2527 2795 2728 2786 2675 2613 2570 2651 2529 2549 2641 2677
2009 2231 2366 2502 2555 2666 2663 2582 2710 2838 2877 2791 2963 2856 2775 2885 3006 3011 2865 2799 2873 2721 2805 2860 2811 2795 2945 2786 3041 2949 2897 2808 2893 2840 2791 2636 3017 2819 2798 2606 2593 2630 2801 2570 2636 2796 2900 2929 2833 2772 2906 2792 2556 2766 3114 3266 3189 3076 2929 2750 2674 2662 2789 2928 2984 2808 2504 2111 2207 2242 2240 2256 2254 2271 2623 2861 2731 2730 2718 2641 2402 2309 2252 2632 2547
2069 2192 2274 2384 2584 2643 2541 2566 2674 2795 2907 2916 2936 2878 2985 3035 3045 3025 2959 2710 2976 2953 2880 2889 2757 2795 2637 2810 2760 3037 2825 2692 2860 2623 2613 2770 2533 2972 2781 2669 2479 2495 2313 2237 2560 2843 3035 2993 2862 2812 2857 2611 2598 2827 3022 2766 3108 3070 2993 3024 2949 2887 2794 2750 2880 2563 1972 1900 1964 2022 2098 2193 2242 2284 2609 2760 2697 2717 2982 2865 2915 2736 2848 2993 2807
2055 2088 2096 2298 2486 2704 2488 2544 2790 2813 2817 2958 2925 2893 3045 2945 2676 2643 2518 2571 2509 2936 2827 2589 2666 2668 2732 2659 2584 2778 2560 2552 2683 2423 2498 2704 2507 2137 2718 2670 2823 2743 2688 2902 2998 2545 2241 2384 2678 2368 2895 2680 2570 2727 2750 2621 2922 2913 2900 2997 3005 2816 2714 2744 2600 2422 1793 1944 2120 2357 2886 2900 2286 2402 2608 2707 2751 2758 2880 2775 3014 2603 2477 2846 2826
2002 1985 2037 2294 2410 2745 2795 2827 2764 2756 2753 2938 2917 2898 2934 2884 2757 2769 2372 2550 2545 2302 2776 2701 2622 2547 2358 2369 2779 2668 2542 2339 2483 2583 2516 2780 2630 2412 2122 2774 2882 2952 2820 2984 2888 2642 2169 2854 2796 2771 2922 2728 2900 2863 2982 2946 3146 3004 2972 2902 2600 2764 2931 2650 2105 1920 2076 2241 2320 2394 2715 2796 2282 2343 2593 2490 2456 2445 2777 2648 2687 2657 2587 2600 2631
1917 1909 2050 2264 2986 2897 2929 2748 2624 2660 2734 2814 2811 2732 2747 2701 2632 2671 2439 2333 2565 2218 2550 2490 2658 2386 2237 2578 2647 2692 2484 2452 2403 2462 2422 2553 2612 2343 2222 2559 2648 2724 2756 2795 2658 2659 2408 2552 2644 2822 2978 3196 2869 2967 2923 2789 2841 2877 2792 2379 2489 2904 2796 2531 1832 1934 2086 2118 2064 2051 1982 2037 2144 2276 2680 2626 2752 2631 2688 2734 2683 2538 2571 2520 2625
1836 1904 2114 2391 2619 2931 2737 2685 2648 2709 2619 2693 2660 2588 2676 2623 2646 2418 2708 2225 2437 2258 2206 2268 2367 2411 2337 2422 2483 2430 2568 2461 2424 2738 2819 2569 2814 2624 2374 2120 2363 2789 2625 2567 2513 2489 2559 2592 2799 2978 3240 3237 3099 3103 2833 2811 2851 2903 2636 2625 2811 2792 2751 2430 1779 1857 1869 1826 1840 1915 2177 2406 2670 2969 2770 2837 2885 2751 2639 2751 2698 2667 2525 2476 2477
1910 2143 2467 2605 2674 2712 2688 2583 2564 2565 2557 2563 2571 2487 2561 2533 2408 2292 2392 2620 2194 2118 2064 2251 2196 2558 2502 2382 2405 2503 2418 2482 2471 2269 2324 2447 2594 2781 2331 2382 2444 2667 2549 2463 2713 2516 2765 2965 2978 3056 3245 3066 2860 2440 2507 2740 2988 2970 2808 2594 2695 2765 2830 2480 2035 1719 1766 1839 2023 2159 2296 2552 2744 3028 2817 2733 2754 2825 2698 2705 2677 2560 2452 2509 2245
2114 2387 2573 2596 2491 2519 2495 2526 2553 2535 2605 2560 2581 2415 2314 2584 2336 2294 2061 2237 2000 1987 1953 1950 2178 2208 2224 2326 2307 2310 2216 2297 2381 2234 1962 1932 1996 2544 2309 2659 2927 2713 2255 2388 2719 2510 2736 3012 3140 3226 3180 3054 2725 2905 2643 2433 2967 3052 2909 2765 3037 2952 2575 1667 1527 1643 1755 2041 2087 2115 2210 2428 2816 2697 2669 2479 2483 2565 2611 2657 2634 2771 2802 2656 2550
2257 2424 2540 2403 2326 2480 2502 2537 2491 2554 2622 2436 2151 2309 2463 2310 2324 2358 2054 2046 1700 1446 1812 1802 2021 2135 2138 2148 2416 2367 2175 2289 2512 2382 2097 2135 2454 2318 2526 2886 2871 2800 2661 2279 2379 2407 2842 2997 3083 2908 2841 2829 2814 2807 2440 2366 2276 2872 2735 2805 2896 2831 2555 2073 1537 1603 1682 1780 2070 2397 2308 2592 2602 2601 2651 2606 2609 2611 2623 2568 2628 2640 2691 2670 2571
2247 2310 2290 2264 2247 2152 2416 2428 2447 2581 2525 2518 2402 2370 2343 2315 2438 2346 2235 2027 1855 1678 1927 1926 1892 1855 2048 2293 2218 2370 2303 2263 2393 2447 2456 2315 2393 2430 2596 2620 2477 2712 2574 2719 2930 3046 2883 2797 2631 2557 2490 2526 2581 2639 2788 3011 3164 3114 3050 2819 2830 2828 2752 2146 1470 1537 1618 2211 2210 2239 2352 2634 2502 2531 2585 2551 2567 2525 2499 2502 2529 2539 2577 2533 2728
2144 2129 2135 2091 2007 2086 2115 2225 2265 2206 2180 2415 2353 2417 2376 2302 2420 2222 2028 1912 1760 1881 1856 1934 1807 1748 2070 2059 2145 2164 2475 2443 2366 2465 2487 2525 2597 2580 2693 2598 2533 2698 2745 2979 2975 2797 2721 2626 2601 2470 2465 2446 2400 2551 2459 2571 2935 3138 2980 2739 2826 2996 2899 2192 1440 1544 1831 2632 2109 2535 2276 2765 2448 2422 2518 2365 2560 2575 2331 2388 2373 2362 2410 2520 2580
1958 1972 1962 1885 1857 1872 2000 2074 2010 2050 1908 1896 1908 2213 2084 2203 2212 1883 1868 1665 1577 1612 1632 1658 1746 1698 1987 2208 2133 1979 2297 2570 2558 2518 2536 2462 2590 2528 2433 2435 2490 2996 3096 3018 3031 2893 2842 3060 3093 3270 3016 2907 2802 2708 2648 2643 2862 3167 3027 2890 2897 3058 2935 2065 1467 1680 2331 1976 2118 2150 2299 2605 2266 2318 2288 2298 2286 2414 2210 2045 2048 2086 2041 2032 1986
1850 1845 1831 1808 1826 1832 1860 1894 1863 1847 1854 1888 1882 1885 2054 2024 1982 1981 1793 1753 1555 1602 1638 1416 1508 1824 1780 1830 1981 2150 1937 2301 2327 2655 2635 2731 2687 2448 2330 2298 2579 2937 2996 3028 2967 2833 2782 3042 3163 3178 3190 3211 2919 3059 2930 2936 2554 2894 3105 2846 2961 3164 2535 1270 1549 1821 1884 1969 2112 2166 2687 2402 2383 2442 2235 2269 2087 1975 1968 2009 1920 1873 2014 1964 2036
1639 1750 1773 1770 1738 1754 1767 1769 1760 1766 1798 1789 1760 1840 1991 1860 1803 1641 1663 1577 1617 1560 1639 1608 1468 1572 1488 1567 1848 1708 1779 1991 2400 2348 2359 2880 2742 2625 2315 2656 2622 2622 2856 2799 2794 2864 3029 3109 3220 2945 3161 3129 3106 3207 3289 2958 2118 2737 3055 3242 3180 3341 2652 2138 1589 1741 1734 2253 2600 2190 2727 2520 2433 2415 2307 2081 2074 2046 1878 1688 1634 1679 1705 1808 1736
1547 1635 1708 1724 1636 1584 1608 1573 1618 1678 1712 1769 1885 1908 1916 1628 1684 1674 1779 1530 1515 1545 1485 1436 1218 1296 1300 1594 1538 1709 1694 1930 2026 2475 2734 2698 2462 2588 2731 2663 2634 2462 2336 2549 2817 2988 3055 3184 3201 3242 3092 3170 3048 2967 2165 2676 3606 3310 3337 3951 3875 2969 2475 2319 1578 1590 1952 2145 2357 2253 2608 2482 2366 2465 2174 2092 2147 1892 2078 2161 2051 2017 2106 1796 1767
1426 1546 1688 1703 1638 1557 1557 1536 1465 1562 1636 1853 1782 1814 1710 1708 1704 1533 1911 1498 1488 1522 1431 1378 1505 1418 1380 1562 1622 1535 1732 1908 1938 2625 2848 2891 2684 2847 2770 2711 2569 2439 2405 2689 2929 2958 3120 3446 3412 3458 3465 3544 3246 2238 2188 2295 2304 3273 2532 2238 2470 2766 2178 1897 1490 1588 1848 2013 2058 2411 2556 2581 2491 2496 2277 2191 2193 2007 2015 2137 2206 2163 2219 2140 2062
1407 1488 1607 1702 1666 1600 1615 1485 1410 1492 1772 1778 1710 1645 1598 1615 1532 1519 1501 1594 1538 1490 1425 1359 1452 1564 1631 1558 1629 1688 1858 1802 2430 2506 2647 2489 2288 2662 2638 2592 2514 2646 2704 3367 3198 3189 3176 3420 3267 3218 3592 2696 2330 2097 2230 2240 2533 2620 2105 2001 1845 1890 1709 1478 1413 1597 1776 2094 2046 2369 2660 2628 2578 2517 2330 2226 2207 1899 2196 2218 2515 2392 2337 2468 2296
1403 1499 1786 1699 1688 1658 1651 1543 1485 1514 1791 1797 1530 1504 1526 1486 1528 1451 1517 1536 1509 1485 1457 1492 1527 1487 1536 1642 1824 1908 1971 1997 2072 2042 2190 2165 2253 2352 2423 2251 2324 2585 3260 2568 2751 2675 3091 2590 2328 2264 2373 2377 2262 2317 2254 2373 2579 2613 2422 2169 2126 1784 1496 1348 1347 1510 1622 1817 2068 2641 2801 2718 2601 2580 2450 2466 2403 2158 2220 2059 2386 2426 2570 2687 2482
1414 1549 1595 1670 1694 1673 1637 1510 1514 1536 1720 1644 1484 1716 1416 1456 1500 1548 1468 1366 1357 1446 1518 1436 1416 1552 1617 1692 1763 1881 1897 1908 2133 2188 2137 2202 2264 2186 2019 2096 2236 2554 2947 2425 2323 2286 2417 2271 1766 1574 1574 1832 2071 2083 2166 3125 2538 2434 2456 2295 2113 2126 1751 1442 1299 1390 1488 1739 2084 2756 2955 2894 2743 2695 2602 2586 2547 2588 2245 2271 2164 2228 2393 2282 2454
1537 1519 1586 1653 1671 1695 1707 1568 1573 1654 1639 1593 1606 1462 1227 1265 1408 1423 1360 1284 1321 1442 1526 1573 1607 1669 1771 1804 1790 1922 2106 2140 2086 2102 2115 2194 2192 2036 1999 2019 2158 2396 2545 2046 1895 1927 1780 1733 1891 1960 1758 1741 1806 1870 1937 2036 2229 2343 2296 2282 2092 1935 1711 1477 1262 1272 1395 1641 2057 2821 3098 2998 2912 2836 2807 2765 2689 2729 2556 2500 2464 2528 2467 2442 2582
1470 1494 1612 1668 1864 1815 1780 1684 1691 1731 1793 1783 1600 1384 1238 1148 1245 1685 1366 1559 1377 1482 1550 1611 1655 1765 1892 1808 1855 1962 1999 1938 1949 2013 2134 2196 2139 2015 1977 1959 2009 2201 2169 2166 2001 1852 1566 1515 1812 1972 2014 1990 2126 2197 2232 2306 2350 2344 2338 2261 2113 1861 1773 1544 1179 1215 1329 1564 1764 2688 3327 3220 3154 2998 3055 3035 2915 2852 2799 2552 2766 2660 2635 2776 2807
1388 1490 1573 1653 1695 1852 1804 1770 1934 1826 1896 1844 1525 1378 1210 1100 1732 1398 1333 1883 1383 1451 1543 1614 1725 1875 1928 1835 1870 1865 1838 1843 1922 2032 2100 2149 2098 2027 1936 1868 1890 1896 1936 2001 2089 1915 1547 1422 1690 1916 2126 2250 2315 2342 2263 2201 2100 2029 2031 2059 1964 1691 1488 1547 1414 1217 1312 1471 1691 2151 3476 3366 3295 3237 3252 3221 3105 3037 2969 2963 2922 2933 2906 2883 2963
1343 1460 1540 1572 1648 1852 1772 1876 1970 1779 1883 1888 1686 1494 1240 1353 1712 1281 1458 1957 1290 1354 1484 1611 1749 1923 1940 1819 1848 1802 1785 1852 1943 2016 2090 2057 1981 1923 1967 1882 1913 1945 1983 1992 1985 1984 1891 1720 1654 1878 2100 2225 2203 2149 2399 1983 1915 1696 1528 1508 1447 1294 1098 1257 1411 1249 1307 1447 1550 1857 3556 3621 3517 3459 3422 3427 3331 3306 3274 3258 3230 3254 3243 3264 3386
1308 1404 1520 1504 1673 1759 1781 1874 1941 2120 1827 1868 1835 1639 1590 1694 1741 1399 1840 1453 1246 1390 1538 1592 1776 1942 1969 1834 1892 2092 1869 1886 1929 1948 1947 2004 1965 2030 2054 2049 2010 1986 1890 1876 1882 2024 2093 2141 2181 2318 2316 2091 2033 2169 2259 2194 1926 1384 975 576 734 539 682 1084 1312 1248 1312 1432 1430 1592 2558 3820 3727 3658 3604 3542 3504 3458 3434 3433 3495 3472 3483 3605 3678
1226 1381 1471 1439 1534 1616 1722 1817 1926 1934 1657 1729 1899 1777 1713 1737 1735 1698 1830 1309 1408 1511 1497 1566 1799 1937 1964 1900 1933 1956 1998 1879 1921 1948 1972 1982 1924 1859 1825 1742 1710 1623 1677 1739 1857 1881 2180 2270 2329 2326 2124 2094 2330 2501 2345 2016 1473 1180 784 169 20 733 867 1140 1259 1238 1271 1270 1276 1396 1837 2841 3968 3796 3764 3601 3502 3459 3472 3489 3501 3572 3755 3868 3891
1087 1235 1355 1363 1450 1364 1414 1676 1808 1802 1478 1543 1568 1780 1772 1760 1730 1813 1697 1549 1622 1570 1548 1612 1751 1905 1952 1930 1971 1975 2088 1872 1829 1892 2312 1899 1835 1696 1585 1554 1525 1515 1556 1735 1868 1884 1808 1784 1858 1981 2409 2788 2689 2613 2405 1989 1740 1580 890 90 216 673 851 1204 1248 1234 1149 1112 1120 1234 1545 2033 2956 3866 3978 3786 3766 3788 3732 3650 3561 3670 3847 3869 3873
840 958 1155 1328 1369 1199 1386 1498 1568 1484 1283 1372 1465 1676 1686 1756 1822 1722 1899 1660 1673 1574 1598 1618 1862 1964 1910 1905 1921 1912 1943 1766 1741 1738 1769 1820 1761 1680 1601 1570 1559 1511 1467 1709 1863 2330 2632 2982 2431 3028 3693 3151 2861 2970 2549 1921 1553 1175 880 46 275 593 690 1142 1309 1302 1192 1110 1147 1092 1282 1583 2258 2915 3315 3978 3978 3894 3912 3954 3946 3860 3890 3912 4068
834 789 1056 1258 1261 1215 1523 1478 1575 1206 1390 1207 1436 1572 1562 1769 1776 1632 1710 1718 1766 1601 1549 1616 1842 2087 1992 1834 1774 1766 1892 1658 1585 1588 1641 1661 1613 1512 1440 1233 1397 1449 1560 2380 2797 2759 2774 2756 3624 3110 2991 2731 3199 3116 2821 2180 1605 552 714 789 720 709 685 797 1272 1403 1336 1170 1255 964 1072 1365 1674 2214 2644 2889 3738 4150 4093 4091 4169 4156 4170 4164 4234
737 803 979 1076 1100 1199 1640 1257 1355 985 1044 1031 1254 1418 1535 1731 1797 1950 1686 1747 1806 1674 1560 1633 1830 2133 2145 2065 1757 1644 1920 1601 1460 1432 1404 1408 1407 1449 1415 1420 1880 2565 2900 3225 3406 2572 2628 2690 3048 3608 3092 2879 3528 2855 2635 2488 2380 1447 787 729 728 696 643 641 893 1362 1479 1372 1322 1007 847 1006 1340 1532 2512 2292 2584 2870 3982 4238 4228 4264 4492 4715 4718
738 813 942 965 1039 1044 1562 1089 1079 874 905 950 974 1222 1514 1679 1782 1880 1608 1710 1842 1718 1640 1690 1840 2070 2143 2222 2208 2062 2224 1941 1708 1427 1209 1235 1363 1357 1381 2379 3375 2964 2624 2607 2805 3300 2718 2527 2465 3626 3423 3011 2934 2787 2539 2530 2502 2181 720 678 718 737 698 599 593 994 1486 1546 1496 1300 829 851 1132 2287 1776 2147 2151 2069 2538 3924 4451 4527 4599 4694 4804
783 819 902 954 966 931 1157 933 853 711 793 801 793 1064 1445 1604 1664 1681 1785 1666 1852 1699 1504 1552 1733 1869 1940 1956 2036 2164 2438 2104 1903 1732 1478 1335 1291 1326 2395 3302 2805 2477 2409 2574 3046 3471 3426 3004 2748 2830 3293 3101 3056 2892 2691 2649 2504 2353 1014 675 678 880 625 602 751 1590 1130 1426 1480 1362 1004 881 984 1173 1520 1535 1590 1499 1359 1881 3274 4476 4631 4693 4624
871 887 922 910 852 856 940 1023 604 536 687 675 837 1054 1369 1486 1421 1506 1406 1622 1788 1710 1522 1554 1604 1700 1754 1713 1827 2191 2561 2066 2359 2660 2275 2033 1659 2362 3049 3008 2632 2272 2414 2326 2538 2912 3155 3065 3328 3390 3363 3262 3361 3158 2868 2596 2544 2247 1274 579 469 679 500 555 773 820 778 954 1212 1316 1032 1036 948 1072 1314 1583 1572 1637 1416 1204 1432 1765 2008 2620 4099
880 962 908 864 771 804 796 866 604 629 684 747 1002 1200 1404 1407 1139 1373 1239 1542 1674 1619 1616 1593 1640 1859 1933 2040 2124 2218 2487 2567 2913 2797 2502 2090 2414 2972 2918 3110 2795 2395 2146 1984 2204 3006 3752 3896 3437 4005 3415 2979 2847 2780 2474 1718 1332 666 1210 582 398 551 566 803 1139 725 617 629 833 1534 1473 1337 1366 1451 1543 1671 1756 1646 1757 1673 1538 1460 1729 2064 2338
828 940 920 818 712 775 713 776 636 741 771 824 985 1329 1467 1301 1044 1305 1072 1246 1413 1396 1438 1449 1702 1833 1974 2107 2096 2254 2436 3252 3186 2302 2214 3251 2738 2880 3274 3619 3306 2815 2482 2173 2691 3805 4690 4045 3861 3110 3744 2864 2655 2634 2545 1240 505 443 135 294 541 584 1262 2371 731 678 467 509 612 694 1216 1431 1486 1531 1800 2117 2337 2177 1788 1799 1875 1722 1635 1678 1703
690 837 840 786 717 741 681 694 641 811 902 1036 1235 1430 1432 1244 1255 1245 923 936 1218 1281 1275 1406 1687 1670 1853 1952 2173 2184 2297 2904 3302 2772 2770 2698 2866 3236 3376 3421 3560 3232 2894 3668 4431 4711 3164 3240 3139 2785 2935 3040 2552 2561 2608 777 906 320 287 166 212 592 1371 1586 538 585 466 524 599 696 713 902 1106 1162 1226 1501 2063 2421 2377 2148 1853 1930 1987 1749 1532
522 636 641 720 724 699 653 664 625 813 934 1058 1230 1347 1321 1161 1177 1290 873 950 1130 1198 1200 1342 1631 1625 1730 1810 2121 2089 2147 2520 3144 3045 2667 2712 2925 3066 3188 3161 3058 4004 3731 2990 3140 2882 3264 3125 3046 2862 2836 2420 2906 3120 2978 1998 1572 1070 578 255 324 90 476 200 369 472 476 460 522 592 608 601 648 826 947 1050 1130 1411 2023 2292 2251 2038 1934 1912 1734
222 386 278 599 648 616 580 614 676 779 886 1098 1399 1294 1214 1086 1092 1171 1117 937 1031 1102 1147 1293 1536 1611 1661 1738 1945 1991 2144 2265 2898 2804 2760 2698 2819 2932 3011 3060 3266 4302 3262 2979 2710 3091 3102 2760 2494 3536 3077 2190 2497 2671 3909 2634 1411 732 598 369 320 553 318 375 385 384 638 402 381 39 121 382 492 599 626 757 807 731 902 1675 2034 2086 2003 1920 1793
148 109 233 431 558 580 580 680 784 837 950 1428 1463 1217 1620 1136 1041 798 940 888 858 928 1049 1254 1528 1641 1608 1699 1803 1897 2070 2131 2593 2772 3034 2546 2569 2768 2997 3140 3489 3968 3312 3022 2915 3042 3066 2582 2651 2769 2865 2745 2600 2388 2277 2757 2417 2211 1237 822 864 579 558 525 1000 863 550 739 764 704 572 411 329 399 473 560 637 646 592 1108 1550 1880 2033 1974 1891
281 343 357 335 427 441 555 625 777 843 956 1312 1276 1251 1639 1059 1008 752 616 700 693 710 891 1204 1491 1558 1640 1619 1706 1813 2000 2074 2142 2658 2818 2837 2828 2786 2790 2756 3127 3515 3810 3368 3094 2610 2689 2757 2926 2983 2665 3550 2724 2246 2228 2609 2672 2837 2045 1945 1374 1386 1116 978 834 965 561 1135 570 375 26 405 419 393 363 461 569 604 548 464 759 1086 1426 1582 1425
272 214 196 306 406 461 577 670 777 894 1040 1288 1192 1612 1293 936 975 877 669 551 369 493 792 1097 1373 1433 1471 1600 1729 1757 1904 2024 2004 2245 2660 3128 2881 2821 2679 2692 2956 3307 4056 3612 3239 2942 2810 2919 4128 3124 3230 4118 2699 2423 2535 2568 2360 2279 2249 2038 2776 3143 1692 1026 1052 1239 507 585 494 320 7 99 278 328 380 389 454 475 292 399 494 545 797 871 603
194 196 206 291 424 537 628 695 787 966 1037 1210 1219 1377 1177 1071 1044 921 665 500 222 387 743 1013 1192 1308 1356 1601 1748 1722 1822 1943 1952 2015 2540 2757 2834 2844 2641 2730 2972 2890 3936 3997 3115 3152 2950 2364 3833 3957 4001 3773 2900 2841 2500 2658 2377 2256 2455 1802 1766 1989 1312 1487 1062 894 724 652 489 402 64 43 153 120 170 146 192 232 250 221 275 306 298 539 658
247 241 230 336 444 586 662 696 763 918 1070 1213 1348 1311 1181 1091 1102 930 978 645 306 381 687 1077 1125 1446 1258 1576 1785 1710 1724 1908 1928 1942 2351 2539 2859 2772 2664 2744 2930 2774 4235 3664 3439 3322 2786 2230 2226 2685 2543 2633 3507 3646 2606 2376 2401 2157 1699 1408 1168 902 872 755 1015 932 968 884 640 686 605 457 411 470 468 209 233 102 362 342 360 369 898 1214 1034
308 322 271 400 476 595 657 690 724 842 1022 1222 1506 1321 1240 1251 1016 1082 988 963 1042 759 715 898 1020 1181 1165 1454 1795 1750 1668 1763 1922 1938 2122 2417 2450 2411 2281 2525 2616 2444 3639 3252 2822 3054 2698 2556 2631 2636 2522 2613 2940 3092 3811 2560 2639 2296 2028 1887 1501 1091 1008 874 712 744 898 893 917 1069 1077 859 963 1187 1089 710 827 441 423 454 443 409 842 1156 1228
355 342 386 536 540 590 651 676 712 763 881 1225 1473 1350 1266 1249 1078 1086 1006 1104 1237 986 849 880 956 1069 1060 1234 1613 1759 1724 1534 1688 1884 1937 2254 2317 2526 2366 2539 2541 3033 3327 2953 2723 2966 2602 2443 3235 3108 3102 2468 2578 3151 3228 2731 2658 2535 2238 2048 1844 1301 1028 979 995 909 856 738 752 787 1501 1787 1231 1435 1577 1016 1644 517 498 534 526 835 869 1523 1761
Wind_Speed
15 14 15 16 15 10 6 6 7 9 10 8 7 5 4 2 3 4 5 7 7 8 9 8 8 8 9 10 10 11 12 12 13 14 13 13 11 10 10 8 6 6 5 6 5 7 5 7 7 6 6 6 6 6 7 7 8 7 7 6 6 6 5 6 7 7 7 7 4 3 4 4 5 6 8 10 12 12 12 12 9 7 7 9 10
11 12 13 14 14 8 4 5 5 7 7 6 5 4 3 2 2 3 5 7 8 9 9 9 9 9 10 10 11 12 13 13 14 13 13 12 11 9 9 8 7 7 6 6 6 7 8 7 7 6 6 6 6 6 7 7 7 7 7 7 6 6 6 7 7 7 7 6 6 5 5 4 6 7 9 10 11 12 12 10 8 6 7 7 5
7 9 11 12 10 7 5 5 6 6 5 4 3 3 3 2 2 4 6 7 8 9 9 9 10 10 10 11 12 13 14 14 14 13 12 11 10 9 9 9 8 6 6 7 7 8 7 7 7 6 6 6 6 7 7 7 7 7 7 7 7 7 6 7 7 8 7 7 7 6 5 6 6 8 9 11 11 12 11 9 8 7 5 3 4
5 8 9 12 7 6 4 5 6 5 4 3 2 2 3 2 2 4 6 8 9 9 9 9 9 10 11 12 12 13 14 14 12 11 11 10 10 9 9 8 9 6 5 7 8 9 7 7 6 6 5 7 7 6 7 7 7 7 6 6 6 6 7 7 7 7 7 7 7 4 4 3 4 9 10 11 12 12 10 9 8 6 3 3 3
4 7 9 10 8 5 4 5 4 4 3 3 1 2 2 1 3 5 6 7 8 8 9 9 9 9 10 12 12 12 13 13 12 11 10 9 9 9 8 8 8 7 9 8 8 7 6 7 7 6 4 6 6 7 7 6 6 6 6 6 6 6 6 6 7 7 8 8 7 4 4 4 3 9 10 12 12 11 10 9 8 4 2 3 3
2 6 8 7 7 7 4 3 3 3 4 3 1 1 1 0 2 4 5 6 7 8 8 9 9 9 10 11 10 9 11 11 11 10 9 8 8 8 8 8 7 6 7 5 5 5 7 6 4 3 5 5 6 6 7 6 6 6 5 5 5 5 5 5 6 6 7 8 7 5 4 4 3 4 11 12 12 11 10 8 5 2 3 3 3
2 5 7 7 6 7 4 4 4 5 5 4 3 2 2 2 2 3 4 5 6 7 8 8 9 9 9 8 8 8 8 9 10 9 9 8 8 8 8 8 8 5 6 6 5 6 7 5 3 4 5 4 4 5 5 5 6 6 6 5 4 4 4 4 4 5 6 6 7 6 5 4 3 4 10 11 11 9 8 5 3 3 3 4 4
2 4 6 8 8 7 5 6 6 6 5 5 4 5 5 5 3 3 4 4 5 5 6 6 6 7 6 7 7 8 8 8 9 9 8 9 8 7 8 7 6 4 5 5 6 7 6 5 4 4 4 3 4 3 4 5 6 6 5 4 3 3 3 3 4 3 4 6 7 7 5 5 4 5 9 9 9 7 5 3 3 3 3 4 4
2 4 7 9 10 7 7 7 7 7 7 7 7 7 6 5 4 3 3 3 3 4 5 4 4 5 6 7 8 9 9 8 8 8 9 8 7 7 8 6 5 5 6 7 8 6 4 4 3 4 5 4 5 3 4 5 5 6 4 3 2 0 2 3 2 2 5 7 6 6 5 4 4 6 9 9 7 4 1 3 4 2 3 4 4
3 5 7 9 10 9 8 8 8 8 7 6 5 5 4 3 4 4 3 4 4 5 4 3 3 6 8 8 9 9 11 9 8 7 7 7 6 6 7 5 5 6 6 7 6 5 3 4 3 4 6 8 5 5 6 6 6 5 3 2 2 2 3 4 3 2 6 6 6 6 5 2 5 6 8 7 5 3 3 3 5 4 5 3 4
4 6 7 8 9 8 6 5 6 6 4 4 4 3 4 5 5 5 6 7 8 8 4 6 6 8 9 7 9 11 12 10 8 5 6 7 8 7 7 4 4 6 7 6 5 4 4 3 3 4 5 3 3 5 6 6 6 4 4 3 2 1 3 4 1 6 6 6 6 6 3 2 6 7 7 4 2 3 3 2 2 2 3 4 5
3 5 7 8 7 5 5 5 6 4 4 4 3 4 5 6 7 7 7 9 10 11 9 6 9 10 9 10 10 13 13 11 7 6 7 8 7 7 6 5 5 6 6 5 4 3 2 3 4 4 4 2 3 5 7 5 4 4 3 2 1 2 3 3 4 5 6 6 5 5 4 5 7 6 4 3 3 4 3 1 2 2 2 3 3
2 4 6 7 6 5 4 4 4 4 5 5 4 5 6 7 7 7 8 9 11 12 9 7 9 10 10 11 11 14 14 12 10 10 9 8 7 7 7 6 5 6 5 5 4 2 2 3 4 4 4 4 5 6 5 4 3 4 4 1 1 2 3 2 5 5 5 5 5 4 4 6 7 3 2 2 4 4 3 2 1 1 2 3 4
2 4 6 6 7 5 5 5 6 6 6 6 6 6 6 7 7 8 9 10 12 12 7 8 8 7 9 10 9 11 13 13 12 11 9 9 7 6 7 8 8 7 7 5 3 3 3 4 5 5 4 4 4 8 8 4 4 5 5 3 1 2 2 3 3 5 6 5 5 4 5 7 8 5 4 5 5 5 4 3 3 3 4 5 6
2 3 4 6 6 6 7 7 7 8 8 7 7 7 7 7 8 9 10 10 12 11 6 7 9 4 7 8 8 9 10 11 10 8 8 8 8 6 8 8 8 9 9 6 4 3 4 5 7 6 5 4 4 5 8 4 3 4 5 6 3 3 2 6 5 6 6 6 5 5 6 9 6 5 5 6 6 6 5 4 3 3 5 6 7
2 3 4 5 6 7 6 8 9 9 9 8 8 8 8 9 9 9 9 11 12 14 7 7 9 5 7 8 8 9 8 8 7 5 5 4 4 7 8 8 7 6 3 2 4 2 5 7 8 7 6 5 5 5 8 7 6 7 7 6 4 4 3 5 6 6 6 5 5 6 9 10 6 5 5 7 7 6 6 5 5 5 7 9 9
3 3 5 6 6 7 8 8 9 10 9 8 8 8 9 9 9 9 9 9 13 15 11 12 8 7 7 9 8 8 8 7 5 3 3 7 9 9 9 7 7 7 6 4 4 6 7 8 8 8 8 7 6 7 7 8 9 9 9 7 6 5 5 5 6 7 6 6 6 8 10 11 7 6 7 8 8 7 7 6 7 8 9 10 10
3 5 7 7 7 7 7 8 7 7 7 6 7 8 8 8 8 8 7 7 10 10 9 11 12 9 8 8 9 8 6 4 3 4 4 8 10 12 11 9 9 7 5 5 5 6 8 9 9 8 8 8 8 9 10 10 10 10 9 9 7 7 7 6 7 7 7 6 6 9 11 9 8 9 9 9 8 7 8 9 10 11 11 11 11
5 6 7 7 7 6 6 6 6 5 6 6 6 5 5 5 6 6 8 10 11 12 7 9 13 8 8 9 9 8 6 4 2 3 3 8 11 12 11 10 8 7 7 5 5 7 9 9 9 8 9 9 10 11 11 12 12 10 11 10 9 9 8 6 7 8 7 6 8 10 13 10 11 11 11 10 9 8 9 11 12 12 13 12 12
7 7 7 7 6 5 6 5 5 5 5 6 5 3 4 5 5 5 8 9 12 14 8 8 10 8 9 9 6 4 4 2 2 4 3 6 9 10 8 7 8 7 6 7 8 9 9 9 9 9 10 11 12 13 14 13 13 13 12 13 12 12 8 7 7 7 6 8 10 12 14 11 12 12 11 10 10 10 12 13 14 13 13 14 14
6 7 7 6 5 5 5 5 5 5 5 6 5 4 3 3 4 5 7 11 15 12 10 8 6 5 7 6 4 3 6 7 5 8 3 7 6 8 9 8 8 7 8 8 10 11 11 10 10 11 12 13 15 16 16 16 14 18 17 17 18 11 8 7 7 7 8 10 11 14 15 13 13 13 13 12 12 13 14 14 14 14 14 14 15
6 7 8 7 5 5 5 5 5 5 6 6 5 4 3 3 3 2 3 6 10 10 5 1 1 4 3 2 3 3 5 8 8 7 9 6 7 6 7 7 8 8 9 10 12 13 13 12 12 13 15 15 16 14 16 18 16 17 16 16 12 8 8 8 7 7 9 12 13 15 15 15 14 15 14 13 14 14 15 15 14 15 15 15 14
7 7 8 7 6 5 5 5 5 5 5 6 5 4 4 4 4 3 1 4 7 8 6 4 3 5 6 7 6 7 6 7 8 8 10 6 7 4 5 7 8 9 11 12 13 14 14 14 14 15 17 18 16 17 16 17 18 17 17 14 11 9 8 8 8 9 11 14 14 16 16 16 16 15 15 15 15 15 15 15 15 15 15 14 14
7 8 7 7 6 6 5 5 5 5 5 4 5 4 4 6 6 6 4 2 1 2 2 1 1 4 6 9 11 12 10 8 6 6 6 12 9 6 7 8 8 10 11 15 16 15 16 16 16 16 15 16 17 18 18 17 17 14 14 12 10 10 9 10 9 10 12 15 15 18 17 17 17 17 16 16 16 15 15 15 15 14 14 14 12
7 6 7 7 6 6 6 5 6 5 5 5 5 4 5 5 7 7 6 5 3 2 2 2 3 4 3 5 7 10 10 10 10 11 13 13 14 16 16 16 15 16 14 15 16 17 17 16 15 16 16 17 19 19 18 19 18 15 12 12 11 11 11 10 10 10 13 16 16 19 18 18 18 18 17 16 16 15 15 15 14 14 13 13 12
7 7 8 7 7 7 6 6 6 6 6 7 8 7 5 5 6 7 6 6 5 4 4 4 3 3 3 4 6 8 7 10 10 11 13 13 14 15 16 16 15 16 16 15 16 16 15 15 15 16 18 18 19 20 19 18 18 18 12 11 12 11 12 11 11 11 13 16 16 20 20 20 19 19 18 16 15 15 14 13 13 13 14 12 13
9 9 8 9 9 7 7 7 7 6 7 9 9 7 6 6 7 7 6 6 6 6 6 6 6 5 5 6 6 7 9 9 10 11 12 13 13 15 15 16 15 16 17 15 16 15 14 15 16 18 19 20 21 20 19 18 16 15 15 12 12 12 11 11 12 12 13 15 17 21 21 21 20 19 17 16 15 14 14 13 13 14 13 13 14
8 9 9 9 9 8 8 8 7 7 8 9 9 8 7 6 7 8 7 7 6 7 8 8 8 7 8 8 7 8 8 9 10 10 11 12 14 15 16 16 16 16 16 15 15 15 14 14 17 20 21 20 20 19 18 16 15 12 13 15 13 13 12 11 13 13 13 14 16 19 21 21 20 19 17 17 15 14 14 13 13 14 14 14 14
8 9 9 8 9 8 8 8 8 8 9 9 9 9 8 8 8 8 10 8 8 8 9 10 10 10 9 8 9 8 8 9 10 11 12 13 15 16 17 17 16 17 16 16 14 15 15 15 18 21 21 20 19 18 16 15 13 11 12 14 13 13 12 12 13 13 12 13 15 17 21 21 20 19 17 16 15 14 14 13 14 14 14 14 15
9 9 9 9 8 8 9 8 9 9 9 9 9 9 9 9 9 10 12 9 10 9 9 10 11 10 9 9 10 10 9 10 10 12 12 14 16 17 17 17 17 17 15 15 14 15 17 18 18 20 20 19 18 16 14 14 12 10 10 14 14 13 11 11 13 13 12 12 14 15 20 20 19 18 17 16 15 14 14 13 14 14 14 15 15
8 9 9 9 8 8 8 8 8 10 8 9 9 10 9 9 9 11 12 10 10 9 9 10 10 10 9 9 10 11 11 11 11 12 13 15 16 17 17 17 18 17 15 16 16 17 17 18 19 20 19 17 16 14 13 13 12 11 10 12 14 10 10 11 12 12 11 12 12 13 14 19 18 17 16 15 15 14 14 13 13 13 14 14 15
9 9 8 8 8 9 8 7 7 9 10 9 10 9 9 9 10 11 11 10 10 9 9 10 11 10 9 10 11 11 11 12 12 13 15 16 17 17 17 17 18 17 16 18 19 19 19 20 18 18 17 16 15 14 13 12 12 12 9 10 nan 8 9 10 11 11 11 10 11 12 12 12 16 17 16 16 15 14 14 13 13 13 14 14 15
8 8 8 8 9 8 8 7 7 9 9 10 9 9 9 10 10 11 10 10 9 9 10 11 11 11 11 11 12 12 12 12 14 15 16 16 18 18 18 17 18 18 19 20 21 22 22 21 19 16 16 13 13 14 13 11 12 12 10 nan 7 8 8 9 11 10 10 9 9 10 10 10 10 14 16 16 15 14 14 14 14 14 15 15 15
6 7 7 8 7 7 6 6 8 9 9 8 8 8 9 10 11 11 10 9 9 9 10 11 11 11 12 12 13 13 13 13 14 16 16 17 18 17 18 19 20 20 20 21 23 23 23 19 17 14 14 12 14 13 11 11 10 10 8 nan 6 7 7 9 10 11 9 8 7 7 8 8 9 8 9 13 15 14 15 15 15 16 16 16 16
5 7 9 8 7 6 6 6 8 8 8 8 9 8 9 10 10 11 10 10 9 8 9 10 12 12 13 13 14 15 15 15 15 15 17 17 18 19 20 21 22 21 21 21 20 21 18 17 15 14 15 14 13 13 10 10 9 6 4 6 5 5 7 10 10 10 9 7 5 6 6 7 7 7 7 8 9 13 15 15 16 16 17 17 17
8 8 8 7 7 7 7 7 7 8 8 9 8 8 9 10 10 11 10 10 9 9 9 11 13 15 15 16 16 17 18 18 18 17 18 19 20 21 22 23 23 21 20 20 19 17 16 14 14 13 14 14 14 14 11 10 8 8 4 3 4 4 7 8 9 10 8 5 6 5 6 6 6 7 7 7 7 9 14 16 17 17 17 17 17
7 7 7 8 6 7 8 7 7 8 8 8 8 8 8 9 10 11 10 10 10 10 11 12 14 17 18 17 18 19 20 20 21 20 21 22 22 23 24 23 22 20 19 18 16 16 14 13 13 12 11 14 13 13 12 9 9 8 4 2 4 4 7 8 9 9 7 6 5 5 5 6 6 8 7 8 8 8 11 16 17 18 17 17 17
6 6 8 8 7 7 8 8 8 8 8 8 8 8 9 10 11 11 11 10 11 11 11 12 15 17 18 19 18 20 20 22 22 22 22 23 22 22 22 21 20 18 18 16 16 15 13 11 13 13 12 12 12 12 12 11 10 9 5 2 4 6 9 8 7 6 8 8 6 6 7 6 6 8 8 8 9 10 10 12 15 16 17 18 18
6 6 6 6 6 7 7 8 8 8 8 8 9 9 10 11 12 12 12 11 12 12 11 12 15 16 18 18 17 18 20 20 21 21 22 21 20 20 19 19 18 16 16 15 15 15 14 13 12 14 13 12 12 12 12 13 12 10 9 6 4 6 7 7 6 7 9 11 9 8 6 9 8 8 10 10 10 11 11 12 12 13 14 17 17
5 4 5 5 6 6 6 8 9 8 8 8 9 9 9 11 13 14 13 13 13 13 12 13 13 15 16 15 16 17 18 17 18 19 18 17 16 17 17 17 14 14 14 14 13 13 14 15 15 13 14 13 11 9 10 11 10 8 7 7 5 4 4 5 7 8 9 10 11 7 10 9 10 11 11 11 11 11 12 12 13 13 13 13 14
4 3 3 5 6 7 5 7 9 9 8 8 10 9 9 12 14 14 15 14 14 14 13 13 13 14 14 14 15 16 16 16 16 15 15 15 14 15 15 14 13 12 12 12 12 12 13 12 14 12 12 12 12 9 9 8 9 9 9 7 8 5 4 4 7 7 9 11 10 10 11 11 12 12 13 11 12 12 12 12 13 12 13 13 12
3 3 4 5 6 7 6 6 7 8 9 9 10 10 11 12 13 15 14 13 13 13 14 14 14 14 13 13 13 14 14 15 15 13 14 13 13 14 13 12 12 11 12 12 11 11 11 11 11 11 10 10 11 10 10 8 10 9 7 7 8 9 6 4 6 7 8 10 11 12 12 13 13 13 11 11 11 11 11 12 12 12 13 13 13
3 4 3 4 4 6 7 5 6 8 9 9 9 10 11 11 12 14 13 13 15 14 13 13 13 13 13 12 11 12 12 13 13 12 12 13 12 12 13 12 11 11 11 12 11 11 11 11 9 8 12 10 10 10 9 8 10 9 7 5 7 nan 7 5 6 7 9 9 9 12 13 12 13 11 10 10 11 10 12 12 11 12 13 13 13
1 2 1 3 4 5 6 5 6 7 8 9 9 10 10 11 11 11 12 11 13 14 13 12 12 11 12 12 11 11 11 11 11 11 11 11 11 10 11 11 11 11 10 10 10 11 11 10 8 8 7 10 10 10 7 9 8 9 10 7 6 5 6 6 6 9 6 9 9 nan 11 10 10 9 7 10 10 9 10 9 10 11 11 11 12
3 2 1 3 5 5 5 6 5 6 7 8 9 9 9 10 10 10 11 13 14 12 12 13 13 12 11 11 11 10 10 9 9 10 9 9 10 9 9 10 10 10 9 9 9 9 10 9 7 7 7 8 11 10 11 10 10 9 7 7 7 5 7 9 5 9 5 5 5 6 8 9 9 8 8 9 7 8 8 9 10 10 10 11 13
4 3 2 2 2 3 4 5 6 6 6 7 7 7 7 7 7 6 7 9 9 9 10 10 11 12 12 11 10 10 9 9 8 8 8 8 8 8 8 8 9 10 9 9 8 9 10 9 7 6 8 8 8 10 11 10 8 9 8 9 6 6 7 6 3 5 8 4 6 6 nan 7 7 7 5 6 7 7 8 9 9 10 11 12 13
4 4 4 1 1 2 4 5 6 7 6 6 5 6 6 7 7 5 5 6 6 10 10 10 9 10 11 10 10 10 10 9 9 8 8 8 7 7 7 8 8 8 9 8 8 9 9 9 8 7 8 8 8 10 11 12 11 11 11 12 10 9 7 5 5 3 5 7 5 4 nan nan 4 6 6 5 3 4 6 8 8 9 10 10 10
6 6 6 5 4 3 4 6 7 6 7 7 5 6 5 6 7 7 6 5 5 6 7 8 10 9 9 10 9 10 10 10 9 8 8 7 7 7 7 7 8 8 7 7 7 8 8 10 9 9 8 8 7 8 10 12 8 11 11 10 9 10 9 7 4 4 2 4 9 7 nan nan 3 1 0 1 3 5 6 7 8 8 9 9 9
9 7 6 6 6 4 4 5 6 6 7 6 6 7 7 6 6 6 6 7 6 6 6 7 7 8 8 10 9 9 9 10 9 8 8 7 7 6 6 6 7 7 7 6 7 6 6 8 9 8 8 8 8 8 7 10 9 11 11 10 8 8 9 8 7 6 4 4 5 6 6 6 5 5 7 4 3 4 4 5 7 6 6 8 8
9 8 6 8 8 7 5 4 5 7 7 7 6 7 8 7 6 6 5 6 7 8 7 6 7 8 8 8 9 9 9 9 9 9 9 8 7 7 6 5 5 6 6 6 6 6 6 6 6 6 6 7 7 7 8 9 9 10 8 8 9 10 10 11 11 10 9 7 6 6 4 6 8 6 7 8 6 4 3 3 3 5 5 8 10
9 8 8 8 8 7 5 4 5 7 7 6 6 5 6 6 5 5 5 5 6 6 6 7 7 9 8 8 8 8 9 8 8 9 8 8 7 7 6 6 5 6 6 6 6 6 6 6 6 5 5 6 7 7 7 7 8 9 9 7 6 6 6 7 8 9 8 8 9 8 7 5 5 7 8 7 5 4 3 4 5 6 8 7 6
Wind_Direction
107 112 113 106 96 89 92 96 101 108 112 120 128 140 166 198 213 221 230 235 244 248 250 245 241 246 254 259 269 275 280 284 288 291 291 285 273 266 261 255 247 244 249 255 253 263 262 257 252 248 259 262 264 269 271 271 267 259 249 238 235 243 257 265 271 272 270 268 265 247 253 279 294 300 301 300 300 305 310 315 332 347 4 342 329
89 106 113 110 88 83 75 86 94 98 107 114 125 141 178 184 209 233 233 233 237 243 249 252 256 260 264 268 276 281 282 283 283 284 283 279 274 269 262 252 236 234 242 241 244 246 247 247 249 259 258 262 266 271 271 266 255 243 236 229 227 234 244 256 265 265 256 259 263 259 269 277 296 301 299 299 302 307 313 317 317 11 27 336 344
109 110 114 108 78 77 69 69 79 86 95 105 107 135 157 164 198 239 244 242 240 243 250 255 259 264 269 273 275 280 279 278 278 277 277 277 273 266 260 252 245 234 228 242 235 239 243 243 239 250 258 272 277 280 282 272 249 233 224 220 224 233 239 251 263 265 253 252 266 276 277 288 300 298 301 302 305 307 313 317 317 317 14 348 57
99 113 119 108 81 90 81 71 69 81 81 91 111 126 128 141 213 241 251 254 253 251 252 257 260 264 271 276 277 277 279 276 274 274 275 274 270 264 257 252 242 221 230 231 236 232 223 232 239 248 255 261 263 269 273 262 242 222 214 218 222 229 243 248 248 251 249 240 236 206 110 74 334 309 304 305 309 311 314 316 315 319 338 62 72
116 129 124 120 122 103 67 60 69 66 72 74 84 121 115 130 214 243 254 261 264 264 263 265 267 268 273 276 278 280 281 281 280 277 276 275 270 265 258 250 244 216 215 207 225 235 235 230 231 229 237 272 284 278 268 252 229 209 209 221 232 235 243 253 255 249 238 228 211 165 117 81 30 306 307 310 313 313 315 321 327 348 38 63 63
147 136 126 130 124 113 64 61 62 56 43 33 32 30 40 184 237 248 261 270 272 274 273 275 275 275 275 278 282 284 283 281 278 279 280 279 276 272 265 253 249 226 225 216 237 230 237 239 231 223 230 245 268 273 263 241 221 208 204 216 226 232 239 255 261 250 225 207 184 133 120 94 60 348 312 317 317 319 321 327 342 23 67 65 53
224 139 134 137 114 100 72 67 49 46 33 39 16 350 358 318 292 273 274 282 279 280 280 277 275 275 276 282 288 283 279 278 278 278 280 279 276 272 269 260 248 232 216 210 211 232 243 240 225 236 231 232 249 263 270 253 217 199 196 204 224 245 253 259 259 241 215 160 137 129 124 99 65 32 324 327 324 324 328 341 10 47 61 57 43
181 128 119 117 112 89 69 62 63 54 49 35 32 17 4 353 335 313 297 288 275 271 267 258 263 269 279 298 295 287 280 274 273 276 275 266 259 261 259 257 249 221 225 226 220 222 238 235 206 229 226 218 241 210 244 222 202 185 186 194 231 266 283 284 271 243 202 134 130 126 116 86 53 29 333 330 326 327 342 17 53 61 55 44 36
70 85 91 94 97 65 65 61 54 50 49 44 35 29 23 7 345 333 312 290 259 259 250 258 271 297 305 302 294 287 278 268 264 258 254 261 249 252 254 249 234 220 214 222 225 231 232 244 218 215 218 197 192 191 197 210 195 183 181 171 163 67 327 315 293 219 130 118 120 115 98 77 47 23 341 333 330 330 357 88 98 87 57 34 27
82 85 80 84 86 56 53 57 57 48 44 45 36 26 17 359 350 342 327 283 282 240 262 283 279 255 260 262 274 272 269 258 249 247 252 251 261 249 249 241 223 207 210 215 223 240 268 255 218 208 212 208 165 163 163 193 189 187 183 158 120 64 340 325 316 118 109 110 109 96 72 41 50 30 355 338 341 360 23 44 83 94 75 45 27
92 87 85 84 83 50 52 52 53 50 42 38 27 17 2 357 350 343 321 322 302 291 281 282 273 260 260 260 279 277 271 257 242 234 238 234 248 244 244 236 220 208 208 213 227 231 257 260 224 203 214 211 133 164 168 176 183 188 172 152 135 29 345 335 42 100 105 107 103 95 54 356 45 41 355 352 355 22 11 25 53 56 49 25 17
88 88 91 92 55 38 48 43 61 58 46 37 22 13 7 4 358 349 332 322 308 300 292 290 292 274 280 277 280 275 274 271 263 247 234 232 231 239 229 220 211 213 207 213 237 248 259 246 220 201 199 177 160 164 169 177 185 179 159 168 230 336 346 342 85 92 99 103 98 83 83 65 59 30 347 359 13 24 35 102 143 120 76 43 31
60 88 99 110 101 44 42 48 55 57 47 33 20 19 12 13 9 354 334 324 317 304 311 317 299 297 295 285 278 273 267 262 256 228 219 225 210 218 222 207 205 211 203 214 225 240 242 226 199 197 188 159 164 141 147 166 173 163 136 141 240 340 358 359 88 92 97 94 87 80 67 68 67 41 16 19 26 32 46 64 83 83 54 37 29
42 88 108 108 97 36 29 35 43 42 38 33 24 24 17 18 9 355 350 338 320 304 315 326 303 304 304 289 281 275 264 255 247 227 214 208 214 208 226 207 199 202 204 205 198 193 206 184 176 178 182 168 144 174 159 173 165 153 129 94 73 16 357 79 83 93 90 85 73 63 65 70 71 46 21 16 30 38 46 53 59 38 15 11 13
39 74 100 109 98 86 22 30 39 44 41 36 31 26 23 22 20 11 356 351 319 295 357 332 302 302 298 294 287 280 279 269 256 231 215 208 187 206 224 211 196 206 198 173 207 179 141 174 170 167 169 152 159 168 153 172 139 122 118 102 90 54 52 103 97 94 89 81 74 62 68 79 54 38 26 30 41 46 50 59 56 35 20 21 26
57 69 84 104 101 94 83 46 45 47 42 38 37 34 33 32 28 21 8 354 320 300 352 310 291 308 301 296 293 294 293 280 265 243 224 210 198 236 224 210 200 210 215 180 155 144 174 164 163 161 153 153 150 164 141 153 141 135 113 100 94 64 54 95 99 96 84 73 69 76 87 85 62 49 43 46 45 52 55 57 47 31 31 36 42
48 70 98 102 110 111 105 95 69 45 46 41 39 37 35 33 23 16 2 342 307 324 333 312 313 306 311 302 295 286 282 277 268 254 276 269 253 238 228 217 208 207 190 171 179 177 164 162 160 157 154 151 146 138 142 147 142 129 117 93 90 72 68 84 97 87 72 70 77 89 96 96 77 67 58 55 53 57 58 55 52 53 54 56 55
100 98 101 104 109 109 108 113 104 103 104 67 42 40 34 30 23 10 345 316 290 298 314 313 304 312 304 282 285 290 283 273 252 196 261 261 247 235 222 211 200 193 189 176 174 167 160 157 160 158 151 148 141 135 139 135 127 121 100 91 88 77 72 75 96 87 77 69 85 95 100 77 72 67 59 57 56 59 66 65 61 62 61 61 61
105 95 97 95 98 102 108 110 111 117 117 118 108 75 35 23 39 19 323 296 308 308 336 306 294 307 308 292 288 295 301 295 263 189 253 254 236 228 220 208 179 187 183 173 163 157 153 155 157 153 149 142 135 132 127 123 120 117 104 100 87 78 65 88 91 82 84 85 91 103 100 80 72 67 61 56 58 63 73 77 79 80 76 70 62
113 97 88 93 90 93 103 105 106 112 120 127 121 124 63 48 31 13 318 310 302 313 332 306 305 322 297 283 288 271 293 270 288 198 235 246 234 209 214 192 184 180 171 165 154 146 142 147 148 145 139 140 132 128 121 119 119 116 111 96 92 78 96 94 87 84 86 89 99 100 94 72 71 66 62 63 66 72 75 79 80 80 79 76 71
103 104 99 86 82 85 91 98 104 117 127 126 123 122 115 60 48 350 329 325 309 311 326 317 323 320 295 304 306 206 176 164 158 165 183 187 209 208 203 189 175 165 155 149 138 137 138 142 146 141 138 133 133 127 126 125 135 135 116 106 89 104 97 87 83 84 90 99 100 96 82 73 67 63 61 63 71 74 78 78 79 78 76 76 71
96 95 95 85 79 79 87 100 115 120 119 128 124 129 111 83 120 360 0 326 317 328 292 246 82 167 317 294 179 151 151 142 140 138 147 155 169 201 187 172 159 146 139 139 135 136 141 145 148 142 135 133 131 138 135 136 136 119 117 118 117 107 93 77 75 79 96 104 102 93 74 69 66 65 66 73 77 79 80 79 78 76 72 69 68
93 91 87 85 85 85 96 108 115 113 124 126 130 128 127 128 135 120 100 320 332 328 343 343 104 137 164 153 156 144 138 135 134 131 137 130 146 167 154 147 140 134 141 138 136 136 141 146 145 140 134 136 141 135 133 132 131 140 135 129 118 103 86 79 77 88 100 106 103 86 71 67 66 67 71 75 78 81 82 83 80 76 73 70 64
85 89 85 90 83 85 95 99 97 108 121 117 115 119 125 126 124 124 121 115 17 355 321 296 164 131 123 146 143 138 144 139 109 99 116 137 140 137 129 127 130 139 137 145 141 139 139 144 141 135 140 135 132 131 132 130 126 123 121 123 115 94 82 78 85 98 108 105 102 82 71 68 69 70 74 76 80 86 82 80 82 78 79 75 68
92 99 96 82 75 76 79 77 86 100 97 85 85 89 96 111 116 111 108 107 94 76 51 24 24 51 91 134 122 121 130 130 130 127 136 139 144 146 143 144 147 144 147 141 143 142 149 144 139 137 134 132 130 128 130 130 127 124 121 116 105 88 84 89 97 106 107 107 102 83 73 71 71 72 74 76 79 83 82 80 80 80 78 74 66
90 85 81 76 66 65 63 64 74 81 81 73 69 55 55 87 97 88 96 105 100 94 94 81 75 89 105 88 103 118 121 114 120 124 128 132 136 137 139 139 143 140 138 136 139 142 138 138 133 129 126 126 124 124 124 124 123 120 116 103 94 86 86 97 105 110 108 105 101 82 75 74 74 76 78 78 80 81 85 80 78 74 69 66 62
78 80 75 73 64 60 60 59 60 66 62 66 68 63 59 76 92 87 83 92 95 94 96 99 103 105 108 106 112 115 118 119 116 117 121 128 131 132 134 136 138 136 138 136 137 135 131 130 129 123 121 122 122 122 121 118 112 113 112 102 92 92 89 97 109 110 107 105 99 81 77 76 76 79 81 81 80 80 82 78 73 73 70 61 55
77 69 71 68 63 49 49 54 53 50 59 61 66 63 68 75 79 75 88 74 88 94 99 104 110 111 110 108 105 109 106 107 108 110 114 124 126 128 130 133 135 133 135 134 133 129 126 124 123 121 119 117 116 115 113 108 105 101 102 101 96 96 95 101 107 111 108 105 101 88 78 77 78 80 81 82 81 77 77 77 68 66 64 62 59
56 61 68 63 56 44 40 42 47 45 53 59 63 69 71 77 90 91 86 80 102 96 101 110 113 114 116 109 107 108 113 111 110 110 119 121 126 129 130 130 133 129 131 127 122 120 117 115 117 116 114 114 113 109 104 99 96 94 88 95 96 99 101 106 108 111 110 105 100 94 79 77 79 80 82 82 82 77 74 71 67 64 61 58 55
48 52 62 66 58 44 32 36 41 45 50 59 67 68 69 78 87 84 88 98 100 102 104 109 114 118 118 118 120 120 118 118 120 122 123 120 124 129 131 131 126 122 121 116 114 111 110 114 114 112 111 109 105 99 94 94 96 87 82 93 99 100 101 105 107 108 109 106 101 98 84 78 79 81 82 82 80 77 74 69 64 62 59 55 52
41 50 57 65 62 46 41 42 46 42 56 59 68 73 73 80 84 85 95 97 99 100 101 104 109 114 115 121 125 126 126 126 126 126 126 127 127 129 130 127 121 116 115 110 109 106 107 107 109 107 106 99 93 88 83 87 89 88 84 92 100 104 101 105 109 111 111 105 102 100 97 83 79 81 81 81 78 77 76 73 68 62 56 53 49
42 46 55 63 61 50 44 48 54 53 54 64 70 75 76 83 89 89 95 94 97 100 98 101 103 103 105 112 119 124 124 124 125 128 129 130 128 128 128 125 116 115 113 110 108 110 110 111 108 103 98 98 100 100 92 84 86 88 85 95 nan 107 103 102 103 105 110 109 103 103 103 102 86 80 81 79 76 74 74 72 68 62 58 55 52
63 43 45 53 54 52 49 53 58 62 59 63 70 79 86 90 91 93 96 96 97 99 94 95 99 103 102 105 111 114 117 113 117 123 128 129 129 128 126 119 114 114 112 112 115 119 118 116 112 105 99 95 97 97 93 85 85 91 93 nan 98 107 108 102 101 106 102 103 100 103 106 106 107 91 81 79 78 73 70 66 62 57 55 52 50
53 60 50 52 60 68 74 73 66 61 64 73 78 80 88 95 99 96 102 98 95 91 93 96 101 104 105 107 110 110 112 111 113 116 123 125 124 122 118 116 113 114 117 120 121 119 115 113 108 111 107 101 95 89 82 83 74 83 91 nan 105 101 99 97 97 97 104 101 103 105 103 106 105 103 101 85 76 72 67 61 57 54 52 51 49
62 51 47 52 56 65 77 87 68 71 70 75 77 80 90 93 94 98 102 102 98 89 92 98 103 105 103 104 110 110 111 111 113 114 116 118 118 117 117 114 117 116 117 116 115 111 109 110 110 112 104 96 91 93 89 90 100 107 104 105 95 106 101 88 92 98 101 108 116 108 104 96 92 88 85 83 76 66 60 58 54 52 50 49 49
45 40 51 60 63 70 79 82 75 73 76 74 82 80 87 90 95 93 99 104 100 97 96 97 103 106 104 106 108 107 109 110 110 110 110 111 112 114 113 115 114 115 115 119 110 115 114 115 109 105 107 104 103 96 89 92 100 120 95 60 82 81 81 88 88 93 98 115 105 110 96 86 73 63 59 53 51 52 54 49 48 47 47 48 48
52 36 46 58 73 73 80 83 75 74 81 81 89 93 98 91 92 93 91 98 98 94 101 104 105 104 103 103 106 106 107 106 105 104 105 107 108 110 111 111 113 115 116 115 122 120 120 119 109 96 90 87 91 92 100 100 105 103 103 53 68 61 72 75 81 86 97 90 94 93 92 80 69 57 46 38 36 40 46 48 42 42 43 44 44
73 40 45 54 64 76 85 91 99 92 96 94 95 95 101 99 96 96 97 93 97 100 101 105 101 101 103 103 106 106 106 103 102 102 103 105 107 107 110 111 114 115 118 124 122 118 115 113 107 93 86 82 88 91 99 104 104 109 109 89 79 51 64 68 71 84 78 80 69 63 62 67 67 60 48 39 31 30 33 44 47 43 42 40 40
82 51 49 69 84 88 99 99 104 102 104 107 109 108 110 108 107 104 101 100 105 106 104 100 98 102 103 106 107 104 102 102 104 104 103 106 107 109 111 112 113 118 122 125 127 125 121 112 107 103 95 83 78 85 88 94 102 107 110 101 90 86 89 95 70 60 66 69 64 54 45 51 53 57 53 45 37 29 32 34 32 27 33 44 44
81 66 46 69 80 87 100 108 109 105 113 114 109 108 110 102 99 109 110 109 110 111 108 101 103 101 107 110 108 105 106 108 108 108 106 107 107 108 110 111 114 120 120 119 122 126 120 116 113 108 110 106 94 99 107 103 92 94 100 103 98 96 98 83 75 66 64 70 67 56 50 46 43 54 51 47 42 38 35 36 33 31 29 38 46
95 81 44 55 69 75 81 83 101 108 110 105 103 104 104 99 105 100 99 105 110 114 109 109 105 104 109 112 111 109 113 117 113 109 109 110 111 111 111 117 119 119 116 112 112 112 108 104 107 106 110 115 101 107 113 105 93 94 106 116 120 115 104 90 64 60 61 63 64 59 57 49 45 45 48 44 45 43 40 38 35 33 32 34 39
95 69 61 43 63 78 77 82 101 102 106 104 104 107 106 98 96 97 105 108 111 108 108 109 105 106 109 110 111 110 114 115 115 115 113 110 109 109 116 114 120 120 114 112 110 110 116 122 119 122 110 103 101 105 115 95 114 88 92 105 121 118 101 86 61 65 58 60 57 57 50 47 47 43 40 35 44 46 45 40 34 32 30 31 35
17 20 59 67 56 79 85 95 97 96 107 111 118 113 115 107 99 106 101 113 113 108 105 106 107 105 106 107 107 106 107 113 115 113 110 110 111 115 114 114 117 116 116 114 122 124 127 124 128 121 120 107 99 100 119 123 99 101 91 92 97 nan 110 126 107 88 69 66 65 67 59 51 55 44 34 30 36 39 40 37 35 32 30 28 32
204 202 123 67 83 84 90 93 91 99 110 117 123 124 123 119 112 106 108 105 109 119 124 125 115 116 107 105 105 104 105 109 112 108 111 111 112 112 117 118 116 119 115 121 127 130 131 135 136 123 108 122 122 109 117 128 108 112 111 98 89 85 105 88 97 101 89 73 61 nan 74 67 58 49 25 34 33 30 39 38 36 32 30 28 31
298 308 30 75 102 71 84 84 94 94 108 113 118 133 141 151 140 137 135 140 145 139 138 129 119 115 115 112 100 107 106 108 111 109 111 109 114 119 118 121 124 123 128 129 130 127 127 124 123 121 116 110 123 117 121 135 135 115 106 114 121 115 72 65 88 89 106 100 90 89 78 68 64 52 40 43 24 16 20 28 31 24 25 31 29
290 301 334 51 101 106 102 106 122 124 111 107 118 132 140 150 154 150 135 131 130 132 117 111 119 119 108 116 118 115 112 111 115 115 115 119 118 125 127 128 125 127 125 125 133 140 139 142 132 122 123 122 124 142 142 140 133 126 122 119 101 110 90 87 97 96 111 93 119 109 nan 72 79 76 60 45 19 7 1 24 19 22 21 27 28
266 263 259 237 193 152 124 121 133 138 127 122 124 131 147 146 136 133 131 127 130 131 132 130 124 122 126 123 119 124 120 116 120 123 123 127 134 132 129 125 127 129 131 135 139 135 139 136 138 138 128 140 149 156 153 140 145 141 143 133 120 115 114 124 117 122 142 126 144 131 nan nan 70 53 57 46 2 345 11 8 18 26 28 23 24
256 243 239 230 238 187 153 136 145 144 139 147 141 133 134 135 139 151 151 143 132 129 138 136 137 141 135 127 132 126 125 125 128 131 134 136 138 130 129 126 124 126 133 131 132 140 149 148 150 145 143 146 153 156 149 155 167 131 136 134 137 141 143 153 153 162 160 151 147 140 nan nan 169 166 36 354 333 349 17 3 6 23 30 34 30
250 244 236 235 235 214 177 160 152 152 150 156 156 143 139 137 137 155 157 145 147 149 156 156 149 149 143 144 141 134 132 133 137 141 143 141 140 133 133 131 129 132 141 138 140 150 145 151 155 155 150 151 151 148 159 152 153 143 144 145 150 160 149 160 174 193 199 194 162 169 161 165 196 206 211 251 298 327 348 10 12 8 16 35 33
257 251 237 234 232 218 200 181 164 169 168 165 165 152 146 153 152 152 166 158 159 168 172 164 157 158 147 145 145 142 139 142 145 150 149 143 141 146 141 134 137 141 150 141 149 154 159 156 153 150 159 160 159 153 153 151 149 147 151 151 174 162 171 170 179 187 191 212 235 195 188 207 210 190 217 222 221 230 267 293 317 339 13 28 24
250 251 237 235 234 225 219 202 177 184 185 181 181 162 156 157 155 158 169 179 174 185 178 164 167 164 151 147 150 146 152 148 155 154 149 146 142 145 140 135 149 156 150 151 150 152 157 160 172 178 183 175 161 165 164 162 162 163 166 172 182 193 186 186 176 184 201 205 209 203 202 211 228 217 221 231 243 233 253 294 323 342 12 7 350